owner,sensor,date,latitude,longitude,vertical_datum,sea_water_practical_salinity,qcFlag 
NERRS,ioos:station:NOAA.NERRS:rkblhwq:1,2017-10-01T00:45:00Z,26.0257,-81.7332,1.28,16.4,1111122 
NERRS,ioos:station:NOAA.NERRS:rkblhwq:1,2017-10-01T01:45:00Z,26.0257,-81.7332,1.4,16.4,1111122 
NERRS,ioos:station:NOAA.NERRS:rkblhwq:1,2017-10-01T02:45:00Z,26.0257,-81.7332,1.5,17.1,1111122 
NERRS,ioos:station:NOAA.NERRS:rkblhwq:1,2017-10-01T03:45:00Z,26.0257,-81.7332,1.55,17.8,1111122 
NERRS,ioos:station:NOAA.NERRS:rkblhwq:1,2017-10-01T04:45:00Z,26.0257,-81.7332,1.52,16.7,1111122 
NERRS,ioos:station:NOAA.NERRS:rkblhwq:1,2017-10-01T05:45:00Z,26.0257,-81.7332,1.45,15.8,1111122 
NERRS,ioos:station:NOAA.NERRS:rkblhwq:1,2017-10-01T06:45:00Z,26.0257,-81.7332,1.33,16.3,1111122 
NERRS,ioos:station:NOAA.NERRS:rkblhwq:1,2017-10-01T07:45:00Z,26.0257,-81.7332,1.23,16.8,1111122 
NERRS,ioos:station:NOAA.NERRS:rkblhwq:1,2017-10-01T08:45:00Z,26.0257,-81.7332,1.17,15.6,1111122 
NERRS,ioos:station:NOAA.NERRS:rkblhwq:1,2017-10-01T09:45:00Z,26.0257,-81.7332,1.13,15.6,1111122 
NERRS,ioos:station:NOAA.NERRS:rkblhwq:1,2017-10-01T10:45:00Z,26.0257,-81.7332,1.21,16.0,1111122 
NERRS,ioos:station:NOAA.NERRS:rkblhwq:1,2017-10-01T11:45:00Z,26.0257,-81.7332,1.32,14.6,1111122 
NERRS,ioos:station:NOAA.NERRS:rkblhwq:1,2017-10-01T12:45:00Z,26.0257,-81.7332,1.42,16.3,1111122 
NERRS,ioos:station:NOAA.NERRS:rkblhwq:1,2017-10-01T13:45:00Z,26.0257,-81.7332,1.51,17.4,1111122 
NERRS,ioos:station:NOAA.NERRS:rkblhwq:1,2017-10-01T14:45:00Z,26.0257,-81.7332,1.57,17.8,1111122 
NERRS,ioos:station:NOAA.NERRS:rkblhwq:1,2017-10-01T15:45:00Z,26.0257,-81.7332,1.56,18.2,1111122 
NERRS,ioos:station:NOAA.NERRS:rkblhwq:1,2017-10-01T16:45:00Z,26.0257,-81.7332,1.51,16.6,1111122 
NERRS,ioos:station:NOAA.NERRS:rkblhwq:1,2017-10-01T17:45:00Z,26.0257,-81.7332,1.39,15.3,1111122 
NERRS,ioos:station:NOAA.NERRS:rkblhwq:1,2017-10-01T18:45:00Z,26.0257,-81.7332,1.24,15.4,1111122 
NERRS,ioos:station:NOAA.NERRS:rkblhwq:1,2017-10-01T19:45:00Z,26.0257,-81.7332,1.1,12.0,1111122 
NERRS,ioos:station:NOAA.NERRS:rkblhwq:1,2017-10-01T20:45:00Z,26.0257,-81.7332,0.97,9.5,1111122 
NERRS,ioos:station:NOAA.NERRS:rkblhwq:1,2017-10-01T21:45:00Z,26.0257,-81.7332,0.91,7.8,1111122 
NERRS,ioos:station:NOAA.NERRS:rkblhwq:1,2017-10-01T22:45:00Z,26.0257,-81.7332,0.96,12.3,1111122 
NERRS,ioos:station:NOAA.NERRS:rkblhwq:1,2017-10-01T23:45:00Z,26.0257,-81.7332,1.11,13.8,1111122 
NERRS,ioos:station:NOAA.NERRS:rkblhwq:1,2017-10-02T00:45:00Z,26.0257,-81.7332,1.25,15.0,1111122 
NERRS,ioos:station:NOAA.NERRS:rkblhwq:1,2017-10-02T01:45:00Z,26.0257,-81.7332,1.38,15.4,1111122 
NERRS,ioos:station:NOAA.NERRS:rkblhwq:1,2017-10-02T02:45:00Z,26.0257,-81.7332,1.51,16.4,1111122 
NERRS,ioos:station:NOAA.NERRS:rkblhwq:1,2017-10-02T03:45:00Z,26.0257,-81.7332,1.59,17.6,1111122 
NERRS,ioos:station:NOAA.NERRS:rkblhwq:1,2017-10-02T04:45:00Z,26.0257,-81.7332,1.61,18.0,1111122 
NERRS,ioos:station:NOAA.NERRS:rkblhwq:1,2017-10-02T05:45:00Z,26.0257,-81.7332,1.54,13.2,1111122 
NERRS,ioos:station:NOAA.NERRS:rkblhwq:1,2017-10-02T10:45:00Z,26.0257,-81.7332,1.17,14.0,1111122 
NERRS,ioos:station:NOAA.NERRS:rkblhwq:1,2017-10-02T11:45:00Z,26.0257,-81.7332,1.29,15.9,1111122 
NERRS,ioos:station:NOAA.NERRS:rkblhwq:1,2017-10-02T12:45:00Z,26.0257,-81.7332,1.42,16.4,1111122 
NERRS,ioos:station:NOAA.NERRS:rkblhwq:1,2017-10-02T13:45:00Z,26.0257,-81.7332,1.53,17.8,1111122 
NERRS,ioos:station:NOAA.NERRS:rkblhwq:1,2017-10-02T14:45:00Z,26.0257,-81.7332,1.62,18.5,1111122 
NERRS,ioos:station:NOAA.NERRS:rkblhwq:1,2017-10-02T15:45:00Z,26.0257,-81.7332,1.67,20.1,1111122 
NERRS,ioos:station:NOAA.NERRS:rkblhwq:1,2017-10-02T16:45:00Z,26.0257,-81.7332,1.68,20.9,1111122 
NERRS,ioos:station:NOAA.NERRS:rkblhwq:1,2017-10-02T17:45:00Z,26.0257,-81.7332,1.62,15.3,1111122 
NERRS,ioos:station:NOAA.NERRS:rkblhwq:1,2017-10-02T18:45:00Z,26.0257,-81.7332,1.49,11.4,1111122 
NERRS,ioos:station:NOAA.NERRS:rkblhwq:1,2017-10-02T19:45:00Z,26.0257,-81.7332,1.34,13.1,1111122 
NERRS,ioos:station:NOAA.NERRS:rkblhwq:1,2017-10-02T20:45:00Z,26.0257,-81.7332,1.18,12.7,1111122 
NERRS,ioos:station:NOAA.NERRS:rkblhwq:1,2017-10-02T21:45:00Z,26.0257,-81.7332,1.03,13.1,1111122 
NERRS,ioos:station:NOAA.NERRS:rkblhwq:1,2017-10-02T22:45:00Z,26.0257,-81.7332,0.94,11.9,1111122 
NERRS,ioos:station:NOAA.NERRS:rkblhwq:1,2017-10-02T23:45:00Z,26.0257,-81.7332,0.99,11.9,1111122 
NERRS,ioos:station:NOAA.NERRS:rkblhwq:1,2017-10-03T00:45:00Z,26.0257,-81.7332,1.13,15.6,1111122 
NERRS,ioos:station:NOAA.NERRS:rkblhwq:1,2017-10-03T01:45:00Z,26.0257,-81.7332,1.27,14.8,1111122 
NERRS,ioos:station:NOAA.NERRS:rkblhwq:1,2017-10-03T02:45:00Z,26.0257,-81.7332,1.41,16.3,1111122 
NERRS,ioos:station:NOAA.NERRS:rkblhwq:1,2017-10-03T03:45:00Z,26.0257,-81.7332,1.51,17.6,1111122 
NERRS,ioos:station:NOAA.NERRS:rkblhwq:1,2017-10-03T04:45:00Z,26.0257,-81.7332,1.55,18.0,1111122 
NERRS,ioos:station:NOAA.NERRS:rkblhwq:1,2017-10-03T05:45:00Z,26.0257,-81.7332,1.5,16.2,1111122 
NERRS,ioos:station:NOAA.NERRS:rkblhwq:1,2017-10-03T06:45:00Z,26.0257,-81.7332,1.38,11.5,1111122 
NERRS,ioos:station:NOAA.NERRS:rkblhwq:1,2017-10-03T07:45:00Z,26.0257,-81.7332,1.25,12.2,1111122 
NERRS,ioos:station:NOAA.NERRS:rkblhwq:1,2017-10-03T08:45:00Z,26.0257,-81.7332,1.13,12.4,1111122 
NERRS,ioos:station:NOAA.NERRS:rkblhwq:1,2017-10-03T11:45:00Z,26.0257,-81.7332,1.1,14.5,1111122 
NERRS,ioos:station:NOAA.NERRS:rkblhwq:1,2017-10-03T12:45:00Z,26.0257,-81.7332,1.24,14.8,1111122 
NERRS,ioos:station:NOAA.NERRS:rkblhwq:1,2017-10-03T13:45:00Z,26.0257,-81.7332,1.37,16.7,1111122 
NERRS,ioos:station:NOAA.NERRS:rkblhwq:1,2017-10-03T14:45:00Z,26.0257,-81.7332,1.48,18.4,1111122 
NERRS,ioos:station:NOAA.NERRS:rkblhwq:1,2017-10-03T15:45:00Z,26.0257,-81.7332,1.57,19.3,1111122 
NERRS,ioos:station:NOAA.NERRS:rkblhwq:1,2017-10-03T16:45:00Z,26.0257,-81.7332,1.61,20.7,1111122 
NERRS,ioos:station:NOAA.NERRS:rkblhwq:1,2017-10-03T17:45:00Z,26.0257,-81.7332,1.6,21.3,1111122 
NERRS,ioos:station:NOAA.NERRS:rkblhwq:1,2017-10-03T18:45:00Z,26.0257,-81.7332,1.48,14.1,1111122 
NERRS,ioos:station:NOAA.NERRS:rkblhwq:1,2017-10-03T19:45:00Z,26.0257,-81.7332,1.33,12.7,1111122 
NERRS,ioos:station:NOAA.NERRS:rkblhwq:1,2017-10-03T20:45:00Z,26.0257,-81.7332,1.16,12.5,1111122 
NERRS,ioos:station:NOAA.NERRS:rkblhwq:1,2017-10-03T21:45:00Z,26.0257,-81.7332,1.0,12.4,1111122 
NERRS,ioos:station:NOAA.NERRS:rkblhwq:1,2017-10-03T22:45:00Z,26.0257,-81.7332,0.87,12.3,1111122 
NERRS,ioos:station:NOAA.NERRS:rkblhwq:1,2017-10-03T23:45:00Z,26.0257,-81.7332,0.81,12.0,1111122 
NERRS,ioos:station:NOAA.NERRS:rkblhwq:1,2017-10-04T00:45:00Z,26.0257,-81.7332,0.88,12.4,1111122 
NERRS,ioos:station:NOAA.NERRS:rkblhwq:1,2017-10-04T01:45:00Z,26.0257,-81.7332,1.01,14.1,1111122 
NERRS,ioos:station:NOAA.NERRS:rkblhwq:1,2017-10-04T02:45:00Z,26.0257,-81.7332,1.17,14.9,1111122 
NERRS,ioos:station:NOAA.NERRS:rkblhwq:1,2017-10-04T03:45:00Z,26.0257,-81.7332,1.32,16.0,1111122 
NERRS,ioos:station:NOAA.NERRS:rkblhwq:1,2017-10-04T04:45:00Z,26.0257,-81.7332,1.42,17.5,1111122 
NERRS,ioos:station:NOAA.NERRS:rkblhwq:1,2017-10-04T05:45:00Z,26.0257,-81.7332,1.49,17.9,1111122 
NERRS,ioos:station:NOAA.NERRS:rkblhwq:1,2017-10-04T06:45:00Z,26.0257,-81.7332,1.39,15.1,1111122 
NERRS,ioos:station:NOAA.NERRS:rkblhwq:1,2017-10-04T07:45:00Z,26.0257,-81.7332,1.26,14.3,1111122 
NERRS,ioos:station:NOAA.NERRS:rkblhwq:1,2017-10-04T08:45:00Z,26.0257,-81.7332,1.11,13.3,1111122 
NERRS,ioos:station:NOAA.NERRS:rkblhwq:1,2017-10-04T10:45:00Z,26.0257,-81.7332,0.88,12.0,1111122 
NERRS,ioos:station:NOAA.NERRS:rkblhwq:1,2017-10-04T11:45:00Z,26.0257,-81.7332,0.87,11.4,1111122 
NERRS,ioos:station:NOAA.NERRS:rkblhwq:1,2017-10-04T12:45:00Z,26.0257,-81.7332,3.15,14.2,1111122 
NERRS,ioos:station:NOAA.NERRS:rkblhwq:1,2017-10-04T13:45:00Z,26.0257,-81.7332,3.6,14.2,1111122 
NERRS,ioos:station:NOAA.NERRS:rkblhwq:1,2017-10-04T14:45:00Z,26.0257,-81.7332,4.1,15.9,1111122 
NERRS,ioos:station:NOAA.NERRS:rkblhwq:1,2017-10-04T15:45:00Z,26.0257,-81.7332,4.51,19.0,1111122 
NERRS,ioos:station:NOAA.NERRS:rkblhwq:1,2017-10-04T16:45:00Z,26.0257,-81.7332,4.78,18.9,1111122 
NERRS,ioos:station:NOAA.NERRS:rkblhwq:1,2017-10-04T17:45:00Z,26.0257,-81.7332,4.94,20.2,1111122 
NERRS,ioos:station:NOAA.NERRS:rkblhwq:1,2017-10-04T18:45:00Z,26.0257,-81.7332,4.81,16.3,1111122 
NERRS,ioos:station:NOAA.NERRS:rkblhwq:1,2017-10-04T19:45:00Z,26.0257,-81.7332,4.39,14.7,1111122 
NERRS,ioos:station:NOAA.NERRS:rkblhwq:1,2017-10-04T20:45:00Z,26.0257,-81.7332,3.94,13.6,1111122 
NERRS,ioos:station:NOAA.NERRS:rkblhwq:1,2017-10-04T21:45:00Z,26.0257,-81.7332,3.48,13.5,1111122 
NERRS,ioos:station:NOAA.NERRS:rkblhwq:1,2017-10-04T22:45:00Z,26.0257,-81.7332,3.07,12.5,1111122 
NERRS,ioos:station:NOAA.NERRS:rkblhwq:1,2017-10-04T23:45:00Z,26.0257,-81.7332,2.9,12.1,1111122 
NERRS,ioos:station:NOAA.NERRS:rkblhwq:1,2017-10-05T00:45:00Z,26.0257,-81.7332,3.06,16.4,1111122 
NERRS,ioos:station:NOAA.NERRS:rkblhwq:1,2017-10-05T01:45:00Z,26.0257,-81.7332,3.54,15.8,1111122 
NERRS,ioos:station:NOAA.NERRS:rkblhwq:1,2017-10-05T02:45:00Z,26.0257,-81.7332,4.03,17.9,1111122 
NERRS,ioos:station:NOAA.NERRS:rkblhwq:1,2017-10-05T03:45:00Z,26.0257,-81.7332,4.45,19.1,1111122 
NERRS,ioos:station:NOAA.NERRS:rkblhwq:1,2017-10-05T04:45:00Z,26.0257,-81.7332,4.88,20.5,1111122 
NERRS,ioos:station:NOAA.NERRS:rkblhwq:1,2017-10-05T05:45:00Z,26.0257,-81.7332,5.15,21.6,1111122 
NERRS,ioos:station:NOAA.NERRS:rkblhwq:1,2017-10-05T06:45:00Z,26.0257,-81.7332,5.17,21.4,1111122 
NERRS,ioos:station:NOAA.NERRS:rkblhwq:1,2017-10-05T07:45:00Z,26.0257,-81.7332,4.89,15.8,1111122 
NERRS,ioos:station:NOAA.NERRS:rkblhwq:1,2017-10-05T08:45:00Z,26.0257,-81.7332,4.43,19.5,1111122 
NERRS,ioos:station:NOAA.NERRS:rkblhwq:1,2017-10-05T09:45:00Z,26.0257,-81.7332,3.91,19.5,1111122 
NERRS,ioos:station:NOAA.NERRS:rkblhwq:1,2017-10-05T10:45:00Z,26.0257,-81.7332,3.44,16.5,1111122 
NERRS,ioos:station:NOAA.NERRS:rkblhwq:1,2017-10-05T11:45:00Z,26.0257,-81.7332,3.03,14.4,1111122 
NERRS,ioos:station:NOAA.NERRS:rkblhwq:1,2017-10-05T12:45:00Z,26.0257,-81.7332,2.95,13.4,1111122 
NERRS,ioos:station:NOAA.NERRS:rkblhwq:1,2017-10-05T13:45:00Z,26.0257,-81.7332,3.37,16.7,1111122 
NERRS,ioos:station:NOAA.NERRS:rkblhwq:1,2017-10-05T14:45:00Z,26.0257,-81.7332,3.93,16.2,1111122 
NERRS,ioos:station:NOAA.NERRS:rkblhwq:1,2017-10-05T15:45:00Z,26.0257,-81.7332,4.42,18.4,1111122 
NERRS,ioos:station:NOAA.NERRS:rkblhwq:1,2017-10-05T17:45:00Z,26.0257,-81.7332,5.07,21.3,1111122 
NERRS,ioos:station:NOAA.NERRS:rkblhwq:1,2017-10-05T18:45:00Z,26.0257,-81.7332,5.23,22.1,1111122 
NERRS,ioos:station:NOAA.NERRS:rkblhwq:1,2017-10-05T19:45:00Z,26.0257,-81.7332,5.13,22.0,1111122 
NERRS,ioos:station:NOAA.NERRS:rkblhwq:1,2017-10-05T20:45:00Z,26.0257,-81.7332,4.78,16.8,1111122 
NERRS,ioos:station:NOAA.NERRS:rkblhwq:1,2017-10-05T21:45:00Z,26.0257,-81.7332,4.38,13.8,1111122 
NERRS,ioos:station:NOAA.NERRS:rkblhwq:1,2017-10-05T22:45:00Z,26.0257,-81.7332,3.88,14.9,1111122 
NERRS,ioos:station:NOAA.NERRS:rkblhwq:1,2017-10-05T23:45:00Z,26.0257,-81.7332,3.49,14.6,1111122 
NERRS,ioos:station:NOAA.NERRS:rkblhwq:1,2017-10-06T00:45:00Z,26.0257,-81.7332,3.44,13.8,1111122 
NERRS,ioos:station:NOAA.NERRS:rkblhwq:1,2017-10-06T01:45:00Z,26.0257,-81.7332,3.82,19.4,1111122 
NERRS,ioos:station:NOAA.NERRS:rkblhwq:1,2017-10-06T02:45:00Z,26.0257,-81.7332,4.37,19.0,1111122 
NERRS,ioos:station:NOAA.NERRS:rkblhwq:1,2017-10-06T03:45:00Z,26.0257,-81.7332,4.88,20.3,1111122 
NERRS,ioos:station:NOAA.NERRS:rkblhwq:1,2017-10-06T04:45:00Z,26.0257,-81.7332,5.28,22.5,1111122 
NERRS,ioos:station:NOAA.NERRS:rkblhwq:1,2017-10-06T05:45:00Z,26.0257,-81.7332,5.59,23.3,1111122 
NERRS,ioos:station:NOAA.NERRS:rkblhwq:1,2017-10-06T06:45:00Z,26.0257,-81.7332,5.8,25.9,1111122 
NERRS,ioos:station:NOAA.NERRS:rkblhwq:1,2017-10-06T07:45:00Z,26.0257,-81.7332,5.78,26.1,1111122 
NERRS,ioos:station:NOAA.NERRS:rkblhwq:1,2017-10-06T08:45:00Z,26.0257,-81.7332,5.48,23.4,1111122 
NERRS,ioos:station:NOAA.NERRS:rkblhwq:1,2017-10-06T09:45:00Z,26.0257,-81.7332,5.07,23.3,1111122 
NERRS,ioos:station:NOAA.NERRS:rkblhwq:1,2017-10-06T10:45:00Z,26.0257,-81.7332,4.54,23.0,1111122 
NERRS,ioos:station:NOAA.NERRS:rkblhwq:1,2017-10-06T11:45:00Z,26.0257,-81.7332,4.0,21.3,1111122 
NERRS,ioos:station:NOAA.NERRS:rkblhwq:1,2017-10-06T12:45:00Z,26.0257,-81.7332,3.56,19.2,1111122 
NERRS,ioos:station:NOAA.NERRS:rkblhwq:1,2017-10-06T13:45:00Z,26.0257,-81.7332,3.58,15.8,1111122 
NERRS,ioos:station:NOAA.NERRS:rkblhwq:1,2017-10-06T14:45:00Z,26.0257,-81.7332,4.18,19.8,1111122 
NERRS,ioos:station:NOAA.NERRS:rkblhwq:1,2017-10-06T15:45:00Z,26.0257,-81.7332,4.76,21.1,1111122 
NERRS,ioos:station:NOAA.NERRS:rkblhwq:1,2017-10-06T16:45:00Z,26.0257,-81.7332,5.22,22.5,1111122 
NERRS,ioos:station:NOAA.NERRS:rkblhwq:1,2017-10-06T17:45:00Z,26.0257,-81.7332,5.5,23.5,1111122 
NERRS,ioos:station:NOAA.NERRS:rkblhwq:1,2017-10-06T18:45:00Z,26.0257,-81.7332,5.71,24.5,1111122 
NERRS,ioos:station:NOAA.NERRS:rkblhwq:1,2017-10-06T19:45:00Z,26.0257,-81.7332,5.75,25.6,1111122 
NERRS,ioos:station:NOAA.NERRS:rkblhwq:1,2017-10-06T20:45:00Z,26.0257,-81.7332,5.52,23.8,1111122 
NERRS,ioos:station:NOAA.NERRS:rkblhwq:1,2017-10-06T21:45:00Z,26.0257,-81.7332,5.16,22.7,1111122 
NERRS,ioos:station:NOAA.NERRS:rkblhwq:1,2017-10-06T22:45:00Z,26.0257,-81.7332,4.75,23.4,1111122 
NERRS,ioos:station:NOAA.NERRS:rkblhwq:1,2017-10-06T23:45:00Z,26.0257,-81.7332,4.25,22.4,1111122 
NERRS,ioos:station:NOAA.NERRS:rkblhwq:1,2017-10-07T00:45:00Z,26.0257,-81.7332,3.83,22.2,1111122 
NERRS,ioos:station:NOAA.NERRS:rkblhwq:1,2017-10-07T01:45:00Z,26.0257,-81.7332,3.86,19.1,1111122 
NERRS,ioos:station:NOAA.NERRS:rkblhwq:1,2017-10-07T02:45:00Z,26.0257,-81.7332,4.41,22.1,1111122 
NERRS,ioos:station:NOAA.NERRS:rkblhwq:1,2017-10-07T03:45:00Z,26.0257,-81.7332,4.94,22.6,1111122 
NERRS,ioos:station:NOAA.NERRS:rkblhwq:1,2017-10-07T04:45:00Z,26.0257,-81.7332,5.32,23.9,1111122 
NERRS,ioos:station:NOAA.NERRS:rkblhwq:1,2017-10-07T05:45:00Z,26.0257,-81.7332,5.6,24.8,1111122 
NERRS,ioos:station:NOAA.NERRS:rkblhwq:1,2017-10-07T06:45:00Z,26.0257,-81.7332,5.84,25.5,1111122 
NERRS,ioos:station:NOAA.NERRS:rkblhwq:1,2017-10-07T07:45:00Z,26.0257,-81.7332,5.87,26.7,1111122 
NERRS,ioos:station:NOAA.NERRS:rkblhwq:1,2017-10-07T08:45:00Z,26.0257,-81.7332,5.56,24.8,1111122 
NERRS,ioos:station:NOAA.NERRS:rkblhwq:1,2017-10-07T09:45:00Z,26.0257,-81.7332,5.16,24.5,1111122 
NERRS,ioos:station:NOAA.NERRS:rkblhwq:1,2017-10-07T10:45:00Z,26.0257,-81.7332,4.67,23.4,1111122 
NERRS,ioos:station:NOAA.NERRS:rkblhwq:1,2017-10-07T11:45:00Z,26.0257,-81.7332,4.15,24.6,1111122 
NERRS,ioos:station:NOAA.NERRS:rkblhwq:1,2017-10-07T12:45:00Z,26.0257,-81.7332,3.64,23.8,1111122 
NERRS,ioos:station:NOAA.NERRS:rkblhwq:1,2017-10-07T13:45:00Z,26.0257,-81.7332,3.39,19.1,1111122 
NERRS,ioos:station:NOAA.NERRS:rkblhwq:1,2017-10-07T14:45:00Z,26.0257,-81.7332,3.83,21.4,1111122 
NERRS,ioos:station:NOAA.NERRS:rkblhwq:1,2017-10-07T15:45:00Z,26.0257,-81.7332,4.48,21.2,1111122 
NERRS,ioos:station:NOAA.NERRS:rkblhwq:1,2017-10-07T16:45:00Z,26.0257,-81.7332,5.07,23.0,1111122 
NERRS,ioos:station:NOAA.NERRS:rkblhwq:1,2017-10-07T17:45:00Z,26.0257,-81.7332,5.54,24.0,1111122 
NERRS,ioos:station:NOAA.NERRS:rkblhwq:1,2017-10-07T18:45:00Z,26.0257,-81.7332,5.88,25.1,1111122 
NERRS,ioos:station:NOAA.NERRS:rkblhwq:1,2017-10-07T19:45:00Z,26.0257,-81.7332,6.11,27.1,1111122 
NERRS,ioos:station:NOAA.NERRS:rkblhwq:1,2017-10-07T20:45:00Z,26.0257,-81.7332,6.14,27.4,1111122 
NERRS,ioos:station:NOAA.NERRS:rkblhwq:1,2017-10-07T21:45:00Z,26.0257,-81.7332,5.86,28.4,1111122 
NERRS,ioos:station:NOAA.NERRS:rkblhwq:1,2017-10-07T22:45:00Z,26.0257,-81.7332,5.54,26.1,1111122 
NERRS,ioos:station:NOAA.NERRS:rkblhwq:1,2017-10-07T23:45:00Z,26.0257,-81.7332,5.19,25.1,1111122 
NERRS,ioos:station:NOAA.NERRS:rkblhwq:1,2017-10-08T00:45:00Z,26.0257,-81.7332,4.79,25.1,1111122 
NERRS,ioos:station:NOAA.NERRS:rkblhwq:1,2017-10-08T01:45:00Z,26.0257,-81.7332,4.46,24.4,1111122 
NERRS,ioos:station:NOAA.NERRS:rkblhwq:1,2017-10-08T02:45:00Z,26.0257,-81.7332,4.54,24.0,1111122 
NERRS,ioos:station:NOAA.NERRS:rkblhwq:1,2017-10-08T03:45:00Z,26.0257,-81.7332,5.03,24.5,1111122 
NERRS,ioos:station:NOAA.NERRS:rkblhwq:1,2017-10-08T04:45:00Z,26.0257,-81.7332,5.35,25.4,1111122 
NERRS,ioos:station:NOAA.NERRS:rkblhwq:1,2017-10-08T05:45:00Z,26.0257,-81.7332,5.61,26.0,1111122 
NERRS,ioos:station:NOAA.NERRS:rkblhwq:1,2017-10-08T06:45:00Z,26.0257,-81.7332,5.78,27.0,1111122 
NERRS,ioos:station:NOAA.NERRS:rkblhwq:1,2017-10-08T07:45:00Z,26.0257,-81.7332,5.92,27.6,1111122 
NERRS,ioos:station:NOAA.NERRS:rkblhwq:1,2017-10-08T08:45:00Z,26.0257,-81.7332,5.78,26.5,1111122 
NERRS,ioos:station:NOAA.NERRS:rkblhwq:1,2017-10-08T09:45:00Z,26.0257,-81.7332,5.43,26.5,1111122 
NERRS,ioos:station:NOAA.NERRS:rkblhwq:1,2017-10-08T10:45:00Z,26.0257,-81.7332,5.01,25.9,1111122 
NERRS,ioos:station:NOAA.NERRS:rkblhwq:1,2017-10-08T11:45:00Z,26.0257,-81.7332,4.48,25.6,1111122 
NERRS,ioos:station:NOAA.NERRS:rkblhwq:1,2017-10-08T12:45:00Z,26.0257,-81.7332,3.87,25.2,1111122 
NERRS,ioos:station:NOAA.NERRS:rkblhwq:1,2017-10-08T13:45:00Z,26.0257,-81.7332,3.36,25.1,1111122 
NERRS,ioos:station:NOAA.NERRS:rkblhwq:1,2017-10-08T14:45:00Z,26.0257,-81.7332,3.07,22.9,1111122 
NERRS,ioos:station:NOAA.NERRS:rkblhwq:1,2017-10-08T15:45:00Z,26.0257,-81.7332,3.45,22.3,1111122 
NERRS,ioos:station:NOAA.NERRS:rkblhwq:1,2017-10-08T16:45:00Z,26.0257,-81.7332,4.13,22.5,1111122 
NERRS,ioos:station:NOAA.NERRS:rkblhwq:1,2017-10-08T17:45:00Z,26.0257,-81.7332,4.73,23.7,1111122 
NERRS,ioos:station:NOAA.NERRS:rkblhwq:1,2017-10-08T18:45:00Z,26.0257,-81.7332,5.23,23.9,1111122 
NERRS,ioos:station:NOAA.NERRS:rkblhwq:1,2017-10-08T19:45:00Z,26.0257,-81.7332,5.54,24.7,1111122 
NERRS,ioos:station:NOAA.NERRS:rkblhwq:1,2017-10-08T20:45:00Z,26.0257,-81.7332,5.68,26.6,1111122 
NERRS,ioos:station:NOAA.NERRS:rkblhwq:1,2017-10-08T21:45:00Z,26.0257,-81.7332,5.59,26.3,1111122 
NERRS,ioos:station:NOAA.NERRS:rkblhwq:1,2017-10-08T22:45:00Z,26.0257,-81.7332,5.31,24.9,1111122 
NERRS,ioos:station:NOAA.NERRS:rkblhwq:1,2017-10-08T23:45:00Z,26.0257,-81.7332,5.0,25.2,1111122 
NERRS,ioos:station:NOAA.NERRS:rkblhwq:1,2017-10-09T00:45:00Z,26.0257,-81.7332,4.65,25.4,1111122 
NERRS,ioos:station:NOAA.NERRS:rkblhwq:1,2017-10-09T01:45:00Z,26.0257,-81.7332,4.33,24.8,1111122 
NERRS,ioos:station:NOAA.NERRS:rkblhwq:1,2017-10-09T02:45:00Z,26.0257,-81.7332,4.19,24.1,1111122 
NERRS,ioos:station:NOAA.NERRS:rkblhwq:1,2017-10-09T03:45:00Z,26.0257,-81.7332,4.49,24.3,1111122 
NERRS,ioos:station:NOAA.NERRS:rkblhwq:1,2017-10-09T04:45:00Z,26.0257,-81.7332,4.93,23.3,1111122 
NERRS,ioos:station:NOAA.NERRS:rkblhwq:1,2017-10-09T05:45:00Z,26.0257,-81.7332,5.3,25.3,1111122 
NERRS,ioos:station:NOAA.NERRS:rkblhwq:1,2017-10-09T06:45:00Z,26.0257,-81.7332,5.55,26.0,1111122 
NERRS,ioos:station:NOAA.NERRS:rkblhwq:1,2017-10-09T07:45:00Z,26.0257,-81.7332,5.74,26.8,1111122 
NERRS,ioos:station:NOAA.NERRS:rkblhwq:1,2017-10-09T10:45:00Z,26.0257,-81.7332,5.21,25.3,1111122 
NERRS,ioos:station:NOAA.NERRS:rkblhwq:1,2017-10-09T11:45:00Z,26.0257,-81.7332,4.72,25.1,1111122 
NERRS,ioos:station:NOAA.NERRS:rkblhwq:1,2017-10-09T12:45:00Z,26.0257,-81.7332,4.13,25.7,1111122 
NERRS,ioos:station:NOAA.NERRS:rkblhwq:1,2017-10-09T13:45:00Z,26.0257,-81.7332,3.53,24.1,1111122 
NERRS,ioos:station:NOAA.NERRS:rkblhwq:1,2017-10-09T14:45:00Z,26.0257,-81.7332,3.05,24.4,1111122 
NERRS,ioos:station:NOAA.NERRS:rkblhwq:1,2017-10-09T15:45:00Z,26.0257,-81.7332,2.86,20.0,1111122 
NERRS,ioos:station:NOAA.NERRS:rkblhwq:1,2017-10-09T16:45:00Z,26.0257,-81.7332,3.24,23.1,1111122 
NERRS,ioos:station:NOAA.NERRS:rkblhwq:1,2017-10-09T17:45:00Z,26.0257,-81.7332,3.79,21.8,1111122 
NERRS,ioos:station:NOAA.NERRS:rkblhwq:1,2017-10-09T18:45:00Z,26.0257,-81.7332,4.33,22.8,1111122 
NERRS,ioos:station:NOAA.NERRS:rkblhwq:1,2017-10-09T19:45:00Z,26.0257,-81.7332,4.8,23.5,1111122 
NERRS,ioos:station:NOAA.NERRS:rkblhwq:1,2017-10-09T20:45:00Z,26.0257,-81.7332,5.14,24.2,1111122 
NERRS,ioos:station:NOAA.NERRS:rkblhwq:1,2017-10-09T21:45:00Z,26.0257,-81.7332,5.3,24.8,1111122 
NERRS,ioos:station:NOAA.NERRS:rkblhwq:1,2017-10-09T22:45:00Z,26.0257,-81.7332,5.21,24.4,1111122 
NERRS,ioos:station:NOAA.NERRS:rkblhwq:1,2017-10-09T23:45:00Z,26.0257,-81.7332,4.95,24.1,1111122 
NERRS,ioos:station:NOAA.NERRS:rkblhwq:1,2017-10-10T00:45:00Z,26.0257,-81.7332,4.65,23.7,1111122 
NERRS,ioos:station:NOAA.NERRS:rkblhwq:1,2017-10-10T01:45:00Z,26.0257,-81.7332,4.34,23.7,1111122 
NERRS,ioos:station:NOAA.NERRS:rkblhwq:1,2017-10-10T02:45:00Z,26.0257,-81.7332,4.08,23.9,1111122 
NERRS,ioos:station:NOAA.NERRS:rkblhwq:1,2017-10-10T03:45:00Z,26.0257,-81.7332,4.09,22.7,1111122 
NERRS,ioos:station:NOAA.NERRS:rkblhwq:1,2017-10-10T04:45:00Z,26.0257,-81.7332,4.4,23.6,1111122 
NERRS,ioos:station:NOAA.NERRS:rkblhwq:1,2017-10-10T05:45:00Z,26.0257,-81.7332,4.79,22.2,1111122 
NERRS,ioos:station:NOAA.NERRS:rkblhwq:1,2017-10-10T06:45:00Z,26.0257,-81.7332,5.09,24.6,1111122 
NERRS,ioos:station:NOAA.NERRS:rkblhwq:1,2017-10-10T07:45:00Z,26.0257,-81.7332,5.24,24.5,1111122 
NERRS,ioos:station:NOAA.NERRS:rkblhwq:1,2017-10-10T08:45:00Z,26.0257,-81.7332,5.34,25.1,1111122 
NERRS,ioos:station:NOAA.NERRS:rkblhwq:1,2017-10-10T09:45:00Z,26.0257,-81.7332,5.26,24.5,1111122 
NERRS,ioos:station:NOAA.NERRS:rkblhwq:1,2017-10-10T10:45:00Z,26.0257,-81.7332,5.0,24.4,1111122 
NERRS,ioos:station:NOAA.NERRS:rkblhwq:1,2017-10-10T11:45:00Z,26.0257,-81.7332,4.6,23.9,1111122 
NERRS,ioos:station:NOAA.NERRS:rkblhwq:1,2017-10-10T12:45:00Z,26.0257,-81.7332,4.09,24.0,1111122 
NERRS,ioos:station:NOAA.NERRS:rkblhwq:1,2017-10-10T13:45:00Z,26.0257,-81.7332,3.58,20.8,1111122 
NERRS,ioos:station:NOAA.NERRS:rkblhwq:1,2017-10-10T14:45:00Z,26.0257,-81.7332,3.11,19.9,1111122 
NERRS,ioos:station:NOAA.NERRS:rkblhwq:1,2017-10-10T15:45:00Z,26.0257,-81.7332,2.73,19.3,1111122 
NERRS,ioos:station:NOAA.NERRS:rkblhwq:1,2017-10-10T16:45:00Z,26.0257,-81.7332,2.66,19.0,1111122 
NERRS,ioos:station:NOAA.NERRS:rkblhwq:1,2017-10-10T17:45:00Z,26.0257,-81.7332,3.01,21.3,1111122 
NERRS,ioos:station:NOAA.NERRS:rkblhwq:1,2017-10-10T18:45:00Z,26.0257,-81.7332,3.5,20.9,1111122 
NERRS,ioos:station:NOAA.NERRS:rkblhwq:1,2017-10-10T19:45:00Z,26.0257,-81.7332,3.99,21.8,1111122 
NERRS,ioos:station:NOAA.NERRS:rkblhwq:1,2017-10-10T20:45:00Z,26.0257,-81.7332,4.46,22.3,1111122 
NERRS,ioos:station:NOAA.NERRS:rkblhwq:1,2017-10-10T21:45:00Z,26.0257,-81.7332,4.83,22.9,1111122 
NERRS,ioos:station:NOAA.NERRS:rkblhwq:1,2017-10-10T22:45:00Z,26.0257,-81.7332,5.04,23.7,1111122 
NERRS,ioos:station:NOAA.NERRS:rkblhwq:1,2017-10-10T23:45:00Z,26.0257,-81.7332,5.0,23.8,1111122 
NERRS,ioos:station:NOAA.NERRS:rkblhwq:1,2017-10-11T00:45:00Z,26.0257,-81.7332,4.74,22.3,1111122 
NERRS,ioos:station:NOAA.NERRS:rkblhwq:1,2017-10-11T01:45:00Z,26.0257,-81.7332,4.47,21.8,1111122 
NERRS,ioos:station:NOAA.NERRS:rkblhwq:1,2017-10-11T02:45:00Z,26.0257,-81.7332,4.24,18.7,1111122 
NERRS,ioos:station:NOAA.NERRS:rkblhwq:1,2017-10-11T03:45:00Z,26.0257,-81.7332,4.04,18.3,1111122 
NERRS,ioos:station:NOAA.NERRS:rkblhwq:1,2017-10-11T04:45:00Z,26.0257,-81.7332,4.09,21.0,1111122 
NERRS,ioos:station:NOAA.NERRS:rkblhwq:1,2017-10-11T05:45:00Z,26.0257,-81.7332,4.33,23.9,1111122 
NERRS,ioos:station:NOAA.NERRS:rkblhwq:1,2017-10-11T06:45:00Z,26.0257,-81.7332,4.66,22.5,1111122 
NERRS,ioos:station:NOAA.NERRS:rkblhwq:1,2017-10-11T07:45:00Z,26.0257,-81.7332,4.93,24.0,1111122 
NERRS,ioos:station:NOAA.NERRS:rkblhwq:1,2017-10-11T08:45:00Z,26.0257,-81.7332,5.11,24.2,1111122 
NERRS,ioos:station:NOAA.NERRS:rkblhwq:1,2017-10-11T09:45:00Z,26.0257,-81.7332,5.16,25.4,1111122 
NERRS,ioos:station:NOAA.NERRS:rkblhwq:1,2017-10-11T10:45:00Z,26.0257,-81.7332,5.1,24.9,1111122 
NERRS,ioos:station:NOAA.NERRS:rkblhwq:1,2017-10-11T11:45:00Z,26.0257,-81.7332,4.8,22.0,1111122 
NERRS,ioos:station:NOAA.NERRS:rkblhwq:1,2017-10-11T12:45:00Z,26.0257,-81.7332,4.37,22.8,1111122 
NERRS,ioos:station:NOAA.NERRS:rkblhwq:1,2017-10-11T13:45:00Z,26.0257,-81.7332,3.86,22.9,1111122 
NERRS,ioos:station:NOAA.NERRS:rkblhwq:1,2017-10-11T14:45:00Z,26.0257,-81.7332,3.39,19.9,1111122 
NERRS,ioos:station:NOAA.NERRS:rkblhwq:1,2017-10-11T15:45:00Z,26.0257,-81.7332,2.94,19.7,1111122 